Weather History for K06D - April, 2014

Change the Weather History Date:

Saturday, April 12, 2014

  Actual Average (KRUG) Record (KRUG)
Temperature  
Mean Temperature 32 °F -  
Max Temperature 37 °F 51 °F 79 °F (1968)
Min Temperature 24 °F 29 °F 4 °F (1992)
Degree Days  
Heating Degree Days 34    
Moisture  
Dew Point 30 °F    
Average Humidity 99    
Maximum Humidity 100    
Minimum Humidity 93    
Precipitation  
Precipitation 1.50 in - - ()
Sea Level Pressure  
Sea Level Pressure 29.82 in    
Wind  
Wind Speed 13 mph (ENE)    
Max Wind Speed 25 mph    
Max Gust Speed 32 mph    
Visibility 8 miles    
Events Fog , Rain , Snow    
Averages and records for this station are not official NWS values.
T = Trace of Precipitation, MM = Missing Value Source: NWS Daily Summary

Daily Weather History Graph

Daily Weather History Graph

Search for Another Location

Airport or City:

Trip Planner

Search our weather history database for the weather conditions in past years. The results will help you decide how hot, cold, wet, or windy it might be!

Date:

Astronomy

Apr. 12, 2014 Rise Set
Actual Time 6:53 AM CDT 8:25 PM CDT
Civil Twilight 6:20 AM CDT 8:59 PM CDT
Nautical Twilight 5:40 AM CDT 9:39 PM CDT
Astronomical Twilight 4:56 AM CDT 10:23 PM CDT
Moon 5:55 PM CDT (4/12) 5:34 AM CDT (4/12)
Length of Visible Light 14h 38m
Length of Day
13h 32m
Waxing Gibbous, 93% of the Moon is Illuminated
Apr 12
Waxing Gibbous
Apr 15
Full
Apr 22
Last Quarter
Apr 29
New
May 6
First Quarter

Hourly Weather History & Observations

Time (CDT) Temp. Windchill Dew Point Humidity Pressure Visibility Wind Dir Wind Speed Gust Speed Precip Events Conditions
12:15 AM 30.2 °F 19.8 °F 28.4 °F 93% 29.90 in 10.0 mi ESE 13.8 mph - N/A   Overcast
12:35 AM 28.4 °F 17.5 °F 28.4 °F 100% 29.90 in 10.0 mi ESE 13.8 mph - N/A   Overcast
12:55 AM 28.4 °F 17.0 °F 28.4 °F 100% 29.89 in 10.0 mi ESE 15.0 mph - N/A   Mostly Cloudy
1:15 AM 28.4 °F 16.6 °F 26.6 °F 93% 29.89 in 10.0 mi ESE 16.1 mph - N/A   Overcast
1:55 AM 28.4 °F 19.1 °F 26.6 °F 93% 29.89 in 2.0 mi ESE 10.4 mph - 0.02 in Snow Light Snow
2:15 AM 26.6 °F 16.8 °F 26.6 °F 100% 29.87 in 1.0 mi East 10.4 mph - 0.25 in Snow Light Snow
2:35 AM 26.6 °F 15.7 °F 26.6 °F 100% 29.87 in 1.0 mi ESE 12.7 mph - 0.59 in Snow Light Snow
2:55 AM 26.6 °F 15.2 °F 26.6 °F 100% 29.86 in 1.5 mi East 13.8 mph - 0.71 in Snow Light Snow
3:15 AM 26.6 °F 15.2 °F 26.6 °F 100% 29.85 in 1.2 mi ESE 13.8 mph - 0.15 in Snow Light Snow
3:35 AM 26.6 °F 17.5 °F 26.6 °F 100% 29.85 in 2.5 mi East 9.2 mph - 0.25 in Snow Light Snow
3:55 AM 26.6 °F 15.7 °F 26.6 °F 100% 29.83 in 3.0 mi ESE 12.7 mph - 0.45 in Snow Light Snow
4:15 AM 26.6 °F 17.5 °F 26.6 °F 100% 29.83 in 10.0 mi East 9.2 mph - N/A Snow Light Snow
4:35 AM 26.6 °F 16.8 °F 26.6 °F 100% 29.82 in 10.0 mi ESE 10.4 mph - N/A   Overcast
4:55 AM 26.6 °F 15.7 °F 26.6 °F 100% 29.81 in 10.0 mi East 12.7 mph 17.3 mph N/A   Overcast
5:15 AM 28.4 °F 19.1 °F 28.4 °F 100% 29.80 in 10.0 mi ESE 10.4 mph - N/A Snow Light Snow
5:35 AM 28.4 °F 17.5 °F 28.4 °F 100% 29.78 in 5.0 mi ESE 13.8 mph - 0.01 in Snow Light Snow
5:55 AM 28.4 °F 17.5 °F 28.4 °F 100% 29.77 in 5.0 mi ESE 13.8 mph - 0.13 in Snow Light Snow
6:15 AM 28.4 °F 19.7 °F 28.4 °F 100% 29.78 in 10.0 mi ESE 9.2 mph - N/A   Overcast
6:35 AM 28.4 °F 20.4 °F 28.4 °F 100% 29.78 in 10.0 mi East 8.1 mph - N/A   Overcast
6:55 AM 28.4 °F 18.5 °F 28.4 °F 100% 29.77 in 1.2 mi East 11.5 mph - 0.10 in Snow Light Snow
7:15 AM 28.4 °F 17.5 °F 28.4 °F 100% 29.76 in 2.5 mi ESE 13.8 mph - 0.05 in Snow Light Snow
7:35 AM 28.4 °F 19.1 °F 28.4 °F 100% 29.76 in 10.0 mi ESE 10.4 mph - 0.05 in   Overcast
7:55 AM 28.4 °F 19.7 °F 28.4 °F 100% 29.76 in 10.0 mi ESE 9.2 mph - 0.05 in   Overcast
8:15 AM 28.4 °F 19.7 °F 28.4 °F 100% 29.78 in 10.0 mi SE 9.2 mph - N/A   Mostly Cloudy
8:35 AM 30.2 °F 20.8 °F 30.2 °F 100% 29.76 in 2.0 mi SE 11.5 mph - 0.03 in   Mostly Cloudy
8:55 AM 30.2 °F 21.3 °F 30.2 °F 100% 29.76 in 8.0 mi SE 10.4 mph - 0.04 in Rain Light Freezing Rain
9:15 AM 30.2 °F 22.6 °F 30.2 °F 100% 29.75 in 10.0 mi SE 8.1 mph - N/A   Overcast
9:35 AM 30.2 °F 23.4 °F 30.2 °F 100% 29.75 in 10.0 mi SSE 6.9 mph - N/A   Overcast
9:55 AM 32.0 °F 23.0 °F 32.0 °F 100% 29.76 in 10.0 mi South 11.5 mph - N/A   Overcast
10:15 AM 32.0 °F 23.0 °F 32.0 °F 100% 29.76 in 9.0 mi South 11.5 mph - N/A Snow Light Snow
10:35 AM 32.0 °F 24.2 °F 32.0 °F 100% 29.75 in 10.0 mi South 9.2 mph - N/A   Overcast
10:55 AM 32.0 °F 24.8 °F 32.0 °F 100% 29.75 in 10.0 mi SSE 8.1 mph - N/A   Overcast
11:15 AM 32.0 °F 24.8 °F 32.0 °F 100% 29.75 in 10.0 mi SSE 8.1 mph - N/A   Overcast
11:35 AM 32.0 °F 25.6 °F 32.0 °F 100% 29.74 in 7.0 mi South 6.9 mph - N/A   Overcast
11:55 AM 32.0 °F 28.7 °F 32.0 °F 100% 29.74 in 4.0 mi South 3.5 mph - N/A   Overcast
12:15 PM 32.0 °F 28.7 °F 32.0 °F 100% 29.74 in 2.5 mi South 3.5 mph - N/A   Overcast
12:35 PM 32.0 °F 27.5 °F 32.0 °F 100% 29.75 in 0.8 mi SW 4.6 mph - N/A   Overcast
12:55 PM 32.0 °F 26.4 °F 32.0 °F 100% 29.75 in 0.2 mi SW 5.8 mph - N/A Fog Fog
1:15 PM 32.0 °F 27.5 °F 32.0 °F 100% 29.74 in 0.5 mi WSW 4.6 mph - N/A Fog Fog
1:35 PM 33.8 °F - 33.8 °F 100% 29.75 in 1.5 mi Calm Calm - N/A   Overcast
1:55 PM 33.8 °F - 33.8 °F 100% 29.75 in 2.5 mi Calm Calm - N/A   Overcast
2:15 PM 35.6 °F 31.7 °F 35.6 °F 100% 29.75 in 8.0 mi NNE 4.6 mph - N/A   Overcast
2:35 PM 35.6 °F 30.7 °F 35.6 °F 100% 29.75 in 10.0 mi North 5.8 mph - N/A   Mostly Cloudy
2:55 PM 35.6 °F 29.9 °F 35.6 °F 100% 29.77 in 10.0 mi NNW 6.9 mph - N/A   Overcast
3:15 PM 35.6 °F 29.9 °F 35.6 °F 100% 29.77 in 10.0 mi NNW 6.9 mph - N/A   Overcast
3:35 PM 37.4 °F 31.4 °F 37.4 °F 100% 29.77 in 10.0 mi NNW 8.1 mph - N/A   Overcast
3:55 PM 37.4 °F 28.5 °F 37.4 °F 100% 29.78 in 10.0 mi NNW 15.0 mph - N/A   Overcast
4:15 PM 37.4 °F 27.5 °F 37.4 °F 100% 29.78 in 10.0 mi NNW 18.4 mph 24.2 mph N/A   Overcast
4:35 PM 37.4 °F 28.9 °F 37.4 °F 100% 29.78 in 10.0 mi NNW 13.8 mph - N/A   Overcast
4:55 PM 37.4 °F 27.5 °F 37.4 °F 100% 29.79 in 10.0 mi NNW 18.4 mph - N/A   Overcast
5:15 PM 37.4 °F 26.4 °F 37.4 °F 100% 29.80 in 10.0 mi NNW 23.0 mph - N/A   Overcast
5:35 PM 35.6 °F 24.5 °F 35.6 °F 100% 29.81 in 10.0 mi NNW 20.7 mph 26.5 mph N/A   Overcast
5:55 PM 35.6 °F 25.2 °F 35.6 °F 100% 29.82 in 10.0 mi NNW 18.4 mph 24.2 mph N/A   Overcast
6:15 PM 33.8 °F 22.8 °F 33.8 °F 100% 29.83 in 10.0 mi NNW 18.4 mph 24.2 mph N/A   Overcast
6:35 PM 32.0 °F 20.5 °F 32.0 °F 100% 29.84 in 10.0 mi NNW 18.4 mph 25.3 mph N/A   Overcast
6:55 PM 32.0 °F 20.1 °F 32.0 °F 100% 29.85 in 10.0 mi NNW 19.6 mph 23.0 mph N/A   Overcast
7:15 PM 32.0 °F 19.5 °F 32.0 °F 100% 29.86 in 10.0 mi NNW 21.9 mph - N/A   Overcast
7:35 PM 30.2 °F 18.1 °F 30.2 °F 100% 29.87 in 10.0 mi North 18.4 mph 24.2 mph N/A   Overcast
7:55 PM 28.4 °F 16.6 °F 28.4 °F 100% 29.88 in 10.0 mi North 16.1 mph - N/A   Overcast
8:15 PM 28.4 °F 16.6 °F 28.4 °F 100% 29.89 in 10.0 mi North 16.1 mph - N/A   Overcast
8:35 PM 28.4 °F 17.0 °F 28.4 °F 100% 29.90 in 10.0 mi NNW 15.0 mph - N/A   Overcast
8:55 PM 28.4 °F 16.2 °F 28.4 °F 100% 29.91 in 10.0 mi NNW 17.3 mph 23.0 mph N/A   Overcast
9:15 PM 28.4 °F 14.7 °F 28.4 °F 100% 29.92 in 10.0 mi NNW 21.9 mph 27.6 mph N/A   Mostly Cloudy
9:35 PM 28.4 °F 15.1 °F 28.4 °F 100% 29.93 in 10.0 mi NNW 20.7 mph - N/A   Overcast
9:55 PM 28.4 °F 15.1 °F 28.4 °F 100% 29.94 in 10.0 mi NNW 20.7 mph 28.8 mph N/A   Overcast
10:15 PM 26.6 °F 12.7 °F 26.6 °F 100% 29.95 in 10.0 mi NNW 20.7 mph 29.9 mph N/A   Overcast
10:35 PM 26.6 °F 11.4 °F 24.8 °F 93% 29.96 in 10.0 mi NNW 25.3 mph 32.2 mph N/A   Overcast
10:55 PM 26.6 °F 12.4 °F 24.8 °F 93% 29.96 in 10.0 mi NNW 21.9 mph 27.6 mph N/A   Overcast
11:15 PM 26.6 °F 11.4 °F 24.8 °F 93% 29.97 in 10.0 mi NNW 25.3 mph 31.1 mph N/A   Overcast
11:55 PM 24.8 °F 9.0 °F 23.0 °F 93% 29.98 in 10.0 mi NNW 25.3 mph 32.2 mph N/A   Overcast